User: anonymous   Login
Location: Friaudour
(46.0460°N, 1.2873°E)
Time: 08:49:43
(UTC+00:00)
Language:

Cosmos 724 - Orbit

View from above orbital plane
View from above orbital plane
View from above satellite
View from above satellite

Ground track
Ground track

The orbit data is extracted from the following two-line orbital elements,

1  7727U 75025A   20266.09260998 -.00000081  00000-0  44217-5 0  9994
2  7727  65.5882  96.2252 0057191 354.1358   5.9038 13.98925530323027
Epoch (UTC): 22 September 2020 02:13:21
Eccentricity: 0.0057191
inclination: 65.5882°
perigee height: 856 km
apogee height: 939 km
right ascension of ascending node: 96.2252°
argument of perigee: 354.1358°
revolutions per day: 13.98925530
mean anomaly at epoch: 5.9038°
orbit number at epoch: 32302

The dashed part of the orbit path shows where the satellite is in the earth's shadow,  

DLR